K4GSL Weather Reports


time (UTC)temp
F
wind
direction
speed
knots
gust
knots
rain 1hr
in
rain 24hr
in
rain mn
in
humidity
%
barometer
mb
20260505230608 64 91 0.0 0.9 0.00 0.00 0.00 75 1019.9
20260505225600 64 91 0.0 0.9 0.00 0.00 0.00 74 1019.8
20260505225056 64 91 0.9 1.7 0.00 0.00 0.00 74 1020.0
20260505224553 63 91 0.0 0.9 0.00 0.00 0.00 76 1020.1
20260505224051 63 92 0.9 1.7 0.00 0.00 0.00 76 1019.9
20260505223548 63 91 0.0 1.7 0.00 0.00 0.00 76 1020.0
20260505223044 64 91 0.9 1.7 0.00 0.00 0.00 75 1020.1
20260505222540 63 91 0.0 0.9 0.00 0.00 0.00 75 1020.1
20260505222037 63 92 0.0 0.9 0.00 0.00 0.00 76 1020.1
20260505221534 62 91 0.9 2.6 0.00 0.00 0.00 76 1020.3
20260505221030 63 92 1.7 2.6 0.00 0.00 0.00 75 1019.9
20260505220528 64 92 0.9 1.7 0.00 0.00 0.00 74 1020.0
20260505220026 63 91 0.0 0.9 0.00 0.00 0.00 76 1020.2
20260505215523 63 91 0.0 2.6 0.00 0.00 0.00 76 1020.3
20260505215021 62 91 0.0 1.7 0.00 0.00 0.00 77 1020.2
20260505214519 63 88 3.5 5.2 0.00 0.00 0.00 76 1020.2
20260505214015 63 91 1.7 2.6 0.00 0.00 0.00 75 1020.1
20260505213513 63 91 0.9 0.9 0.00 0.00 0.00 76 1020.3
20260505213009 63 92 1.7 2.6 0.00 0.00 0.00 76 1020.3
20260505212506 62 91 0.9 1.7 0.00 0.00 0.00 77 1020.1
20260505212003 63 92 1.7 2.6 0.00 0.00 0.00 75 1020.4
20260505211500 63 91 2.6 2.6 0.00 0.00 0.00 75 1020.2
20260505210956 63 91 0.0 1.7 0.00 0.00 0.00 76 1020.2
20260505210453 64 92 1.7 2.6 0.00 0.00 0.00 75 1020.3
20260505205950 63 91 0.9 0.9 0.00 0.00 0.00 76 1020.2
20260505205449 62 92 0.0 2.6 0.00 0.00 0.00 77 1020.3
20260505204945 63 92 0.9 2.6 0.00 0.00 0.00 76 1020.4
20260505204443 63 91 0.0 0.9 0.00 0.00 0.00 76 1020.1
20260505203940 62 91 0.0 0.0 0.00 0.00 0.00 78 1020.3
20260505203436 62 92 0.9 1.7 0.00 0.00 0.00 77 1020.3
20260505202933 61 92 1.7 4.3 0.00 0.00 0.00 77 1020.3
20260505202429 62 91 1.7 2.6 0.00 0.00 0.00 76 1020.3
20260505201926 62 91 1.7 2.6 0.00 0.00 0.00 76 1020.4
20260505201423 62 91 0.0 0.0 0.00 0.00 0.00 77 1020.4
20260505200921 62 91 0.0 1.7 0.00 0.00 0.00 77 1020.5
20260505200418 62 91 0.0 0.9 0.00 0.00 0.00 77 1020.5
20260505195913 63 91 0.0 0.9 0.00 0.00 0.00 76 1020.4
20260505195411 62 91 0.0 0.9 0.00 0.00 0.00 77 1020.4
20260505194908 63 91 0.9 0.9 0.00 0.00 0.00 75 1020.8
20260505194406 62 91 0.0 0.9 0.00 0.00 0.00 78 1020.4
20260505193905 62 91 0.9 2.6 0.00 0.00 0.00 78 1020.9
20260505193404 61 92 0.9 1.7 0.00 0.00 0.00 79 1020.6
20260505192901 61 91 0.0 0.9 0.00 0.00 0.00 79 1020.6
20260505192359 61 90 0.0 1.7 0.00 0.00 0.00 79 1020.8
20260505191856 60 91 0.0 0.0 0.00 0.00 0.00 80 1020.8
20260505191355 60 91 0.9 1.7 0.00 0.00 0.00 80 1020.5
20260505190851 60 92 0.9 0.9 0.00 0.00 0.00 80 1020.6
20260505190347 59 91 0.9 0.9 0.00 0.00 0.00 82 1020.5
20260505185842 59 91 0.9 1.7 0.00 0.00 0.00 81 1020.4
20260505185339 60 90 0.9 2.6 0.00 0.00 0.00 80 1020.5
20260505184835 60 91 0.0 1.7 0.00 0.00 0.00 81 1020.8
20260505184333 60 91 0.9 0.9 0.00 0.00 0.00 80 1020.5
20260505183830 61 92 0.0 0.9 0.00 0.00 0.00 78 1020.4
20260505183326 60 91 0.0 0.9 0.00 0.00 0.00 78 1020.5
20260505182823 61 91 0.9 0.9 0.00 0.00 0.00 77 1020.5
20260505182320 60 91 0.0 0.0 0.00 0.00 0.00 79 1020.5
20260505181817 61 91 0.0 0.0 0.00 0.00 0.00 78 1020.4
20260505181314 60 91 0.0 0.0 0.00 0.00 0.00 79 1020.5
20260505180810 59 91 0.0 2.6 0.00 0.00 0.00 81 1020.4
20260505180307 60 91 0.9 0.9 0.00 0.00 0.00 79 1020.4
20260505175803 60 92 0.0 0.9 0.00 0.00 0.00 78 1020.5
20260505175300 60 92 0.0 0.0 0.00 0.00 0.00 80 1020.5
20260505174756 60 92 0.0 0.0 0.00 0.00 0.00 80 1020.9
20260505174254 60 92 0.9 0.9 0.00 0.00 0.00 80 1020.5
20260505173749 59 91 0.0 0.0 0.00 0.00 0.00 81 1020.5
20260505173246 59 91 0.9 0.9 0.00 0.00 0.00 82 1020.2
20260505172743 58 91 0.0 0.9 0.00 0.00 0.00 83 1020.5
20260505172240 58 92 0.0 1.7 0.00 0.00 0.00 84 1020.4
20260505171740 59 91 0.0 0.9 0.00 0.00 0.00 84 1020.4
20260505171237 58 91 0.0 0.9 0.00 0.00 0.00 84 1020.3
20260505170734 58 91 0.9 0.9 0.00 0.00 0.00 84 1020.2
20260505170231 57 91 0.0 0.9 0.00 0.00 0.00 86 1020.4
20260505165726 57 91 0.0 0.0 0.00 0.00 0.00 87 1020.4
20260505165223 57 91 0.0 0.9 0.00 0.00 0.00 88 1020.4
20260505164718 56 91 0.0 0.0 0.00 0.00 0.00 88 1020.1
20260505164216 56 91 0.0 0.0 0.00 0.00 0.00 89 1020.4
20260505163714 56 91 0.0 0.0 0.00 0.00 0.00 90 1020.5
20260505163212 55 91 0.0 0.9 0.00 0.00 0.00 90 1020.5
20260505162709 55 91 0.0 0.0 0.00 0.00 0.00 91 1020.5
20260505162206 55 91 0.0 0.0 0.00 0.00 0.00 91 1020.5
20260505161703 55 91 0.0 0.0 0.00 0.00 0.00 92 1020.4
20260505161200 54 91 0.0 0.9 0.00 0.00 0.00 92 1020.5
20260505160658 54 91 0.0 0.9 0.00 0.00 0.00 92 1020.5
20260505160155 54 91 0.0 0.9 0.00 0.00 0.00 91 1020.6
20260505153134 54 91 0.0 0.9 0.00 0.00 0.00 93 1020.3
20260505152631 54 91 0.0 0.0 0.00 0.00 0.00 93 1020.3
20260505152127 54 91 0.0 0.0 0.00 0.00 0.00 94 1020.2
20260505151622 54 91 0.0 0.0 0.00 0.00 0.00 94 1020.2
20260505151120 54 91 0.0 0.0 0.00 0.00 0.00 94 1020.2
20260505150616 54 91 0.0 0.0 0.00 0.00 0.00 94 1020.2
20260505150113 53 91 0.0 0.9 0.00 0.00 0.00 94 1020.3
20260505140541 53 91 0.0 0.0 0.00 0.00 0.00 96 1020.0
20260505124955 53 91 0.0 0.0 0.00 0.00 0.00 95 1019.4
20260505124452 53 91 0.0 0.0 0.00 0.00 0.00 95 1019.2
20260505123948 53 91 0.0 0.0 0.00 0.00 0.00 95 1019.4
20260505123444 53 91 0.0 0.0 0.00 0.00 0.00 95 1019.3
20260505122940 53 91 0.9 0.9 0.00 0.00 0.00 95 1019.2
20260505122438 53 91 0.0 0.0 0.00 0.00 0.00 95 1019.3
20260505121934 53 91 0.0 0.9 0.00 0.00 0.00 95 1019.3
20260505121432 53 91 0.0 0.0 0.00 0.00 0.00 95 1019.1
20260505120927 53 91 0.9 0.9 0.00 0.00 0.00 95 1019.1
20260505120424 53 91 0.0 0.0 0.00 0.00 0.00 95 1019.1
20260505115923 53 91 0.9 0.9 0.00 0.00 0.00 95 1019.2
20260505115420 53 91 0.0 0.9 0.00 0.00 0.00 95 1019.2
20260505114918 53 90 0.0 0.9 0.00 0.00 0.00 95 1019.1
20260505114414 53 90 0.0 0.9 0.00 0.00 0.00 95 1019.1
20260505113910 53 90 0.0 0.9 0.00 0.00 0.00 95 1019.1
20260505113407 53 91 0.9 0.9 0.00 0.00 0.00 95 1019.2
20260505112903 53 91 0.9 0.9 0.00 0.00 0.00 95 1019.1
20260505112401 53 91 0.0 0.0 0.00 0.00 0.00 94 1019.1
20260505111856 54 91 0.0 0.9 0.00 0.00 0.00 93 1019.2
20260505111351 54 91 0.0 0.9 0.00 0.00 0.00 93 1019.2
20260505110848 54 91 0.0 0.9 0.00 0.00 0.00 93 1019.1
20260505110345 54 91 0.0 0.9 0.00 0.00 0.00 93 1019.2
20260505101815 54 91 0.9 0.9 0.00 0.00 0.00 92 1019.1
20260505101310 54 91 0.9 0.9 0.00 0.00 0.00 92 1018.9
20260505100807 54 91 0.9 0.9 0.00 0.00 0.00 92 1019.0
20260505100303 54 91 0.9 0.9 0.00 0.00 0.00 91 1018.8
20260505095759 54 91 0.9 0.9 0.00 0.00 0.00 91 1018.7
20260505095257 54 91 0.9 0.9 0.00 0.00 0.00 91 1018.7
20260505094752 54 91 0.9 0.9 0.00 0.00 0.00 91 1018.8
20260505094249 54 91 0.9 0.9 0.00 0.00 0.00 91 1018.8
20260505093745 55 91 0.9 0.9 0.00 0.00 0.00 90 1018.8
20260505093243 55 91 0.9 0.9 0.00 0.00 0.00 90 1018.5
20260505092740 55 91 0.0 0.9 0.00 0.00 0.00 90 1018.6
20260505092238 55 91 0.0 0.0 0.00 0.00 0.00 90 1018.6
20260505091735 55 91 0.0 0.9 0.00 0.00 0.00 90 1018.7
20260505091233 55 91 0.9 0.9 0.00 0.00 0.00 89 1018.5
20260505090730 55 91 0.0 0.9 0.00 0.00 0.00 90 1018.5
20260505090229 55 91 0.9 1.7 0.00 0.00 0.00 89 1018.4
20260505085725 55 91 0.9 1.7 0.00 0.00 0.00 89 1018.4
20260505085224 55 91 0.9 0.9 0.00 0.00 0.00 89 1018.5
20260505084721 55 91 0.9 0.9 0.00 0.00 0.00 89 1018.5
20260505084220 55 91 0.9 2.6 0.00 0.00 0.00 89 1018.5
20260505083716 55 91 1.7 1.7 0.00 0.00 0.00 89 1018.4
20260505083213 55 91 0.0 0.9 0.00 0.00 0.00 89 1018.5
20260505082709 55 91 0.0 0.9 0.00 0.00 0.00 89 1018.4
20260505082206 56 91 0.9 0.9 0.00 0.00 0.00 88 1018.5
20260505081702 56 91 0.9 0.9 0.00 0.00 0.00 88 1018.3
20260505081200 56 91 0.9 0.9 0.00 0.00 0.00 88 1018.6
20260505080656 56 91 0.9 0.9 0.00 0.00 0.00 88 1018.6
20260505080152 56 91 1.7 2.6 0.00 0.00 0.00 88 1018.4
20260505075648 56 91 0.0 1.7 0.00 0.00 0.00 88 1018.6
20260505075145 56 91 0.0 0.9 0.00 0.00 0.00 88 1018.5
20260505074642 56 91 0.0 1.7 0.00 0.00 0.00 88 1018.6
20260505074139 56 91 0.9 0.9 0.00 0.00 0.00 88 1018.3
20260505073637 56 91 0.0 0.9 0.00 0.00 0.00 87 1018.2
20260505073135 57 91 0.0 0.9 0.00 0.00 0.00 87 1018.3
20260505072630 57 91 0.0 0.9 0.00 0.00 0.00 87 1018.2
20260505072127 57 91 0.0 0.9 0.00 0.00 0.00 87 1018.5
20260505071623 57 91 0.0 0.9 0.00 0.00 0.00 87 1018.2
20260505071121 57 91 0.9 0.9 0.00 0.00 0.00 87 1018.2
20260505070618 57 91 0.9 2.6 0.00 0.00 0.00 87 1018.2
20260505070114 57 91 0.0 0.9 0.00 0.00 0.00 87 1018.1
20260505065610 57 91 0.0 1.7 0.00 0.00 0.00 86 1018.2
20260505065107 57 91 0.0 0.9 0.00 0.00 0.00 86 1018.1
20260505064604 57 91 0.0 1.7 0.00 0.00 0.00 86 1018.3
20260505064102 57 91 0.9 1.7 0.00 0.00 0.00 86 1018.2
20260505063559 57 91 0.0 0.9 0.00 0.00 0.00 86 1018.1
20260505063055 57 91 0.0 1.7 0.00 0.00 0.00 86 1018.1
20260505062551 57 91 0.0 0.9 0.00 0.00 0.00 86 1018.0
20260505062049 57 91 0.0 0.9 0.00 0.00 0.00 86 1018.2
20260505061546 58 91 1.7 2.6 0.00 0.00 0.00 85 1018.1
20260505061044 58 91 0.0 0.9 0.00 0.00 0.00 85 1017.9
20260505060541 58 91 0.9 1.7 0.00 0.00 0.00 85 1018.1
20260505060037 58 91 0.9 1.7 0.00 0.00 0.00 85 1018.2
20260505055533 58 91 0.9 0.9 0.00 0.00 0.00 85 1018.3
20260505055030 58 91 0.0 1.7 0.00 0.00 0.00 85 1018.2
20260505054527 58 91 0.0 0.0 0.00 0.00 0.00 85 1018.1
20260505054025 58 91 0.0 1.7 0.00 0.00 0.00 84 1018.1
20260505053522 59 91 0.0 0.0 0.00 0.00 0.00 84 1018.1
20260505053019 59 91 0.0 0.9 0.00 0.00 0.00 84 1018.0
20260505052516 59 91 0.0 0.9 0.00 0.00 0.00 84 1018.2
20260505052014 59 91 0.9 0.9 0.00 0.00 0.00 83 1017.8
20260505051510 59 91 0.0 1.7 0.00 0.00 0.00 84 1017.9
20260505051008 59 92 0.9 1.7 0.00 0.00 0.00 83 1017.9
20260505050506 60 91 0.0 0.9 0.00 0.00 0.00 83 1017.7
20260505041434 61 91 0.0 0.0 0.00 0.00 0.00 82 1017.1
20260505040931 61 91 0.0 0.9 0.00 0.00 0.00 82 1017.3
20260505040428 61 91 0.0 0.9 0.00 0.00 0.00 82 1017.1
20260505035925 61 92 0.9 1.7 0.00 0.00 0.00 82 1017.2
20260505035421 62 91 0.0 0.0 0.00 0.00 0.00 82 1017.1
20260505034919 62 91 0.0 0.0 0.00 0.00 0.00 82 1016.8
20260505034414 62 92 0.0 0.9 0.00 0.00 0.00 81 1016.6
20260505033912 62 91 0.0 1.7 0.00 0.00 0.00 81 1016.6
20260505033409 63 91 0.9 1.7 0.00 0.00 0.00 81 1016.5
20260505032907 63 91 0.0 0.0 0.00 0.00 0.00 81 1016.2
20260505032403 63 91 0.9 0.9 0.00 0.00 0.00 80 1016.2
20260505031900 64 91 0.9 1.7 0.00 0.00 0.00 79 1016.1
20260505031357 64 92 0.9 1.7 0.00 0.00 0.00 79 1016.0
20260505030854 65 92 1.7 1.7 0.00 0.00 0.00 78 1016.0
20260505030350 65 92 0.0 1.7 0.00 0.00 0.00 77 1015.8
20260505025845 66 91 0.0 1.7 0.00 0.00 0.00 77 1015.9
20260505025343 66 92 0.0 0.9 0.00 0.00 0.00 75 1015.8
20260505024842 66 92 0.0 1.7 0.00 0.00 0.00 75 1015.5
20260505024339 67 91 0.0 0.9 0.00 0.00 0.00 74 1015.5
20260505023836 68 92 1.7 2.6 0.00 0.00 0.00 73 1015.6
20260505023333 69 91 0.9 0.9 0.00 0.00 0.00 71 1015.4
20260505022830 69 91 0.0 0.9 0.00 0.00 0.00 70 1015.2
20260505022327 69 91 0.0 1.7 0.00 0.00 0.00 70 1015.4
20260505021824 70 91 0.9 1.7 0.00 0.00 0.00 69 1015.5
20260505021321 70 91 0.0 1.7 0.00 0.00 0.00 69 1015.5
20260505020816 70 91 1.7 4.3 0.00 0.00 0.00 69 1015.6
20260505020312 70 91 0.0 0.0 0.00 0.00 0.00 69 1015.4
20260505015809 70 92 0.0 1.7 0.00 0.00 0.00 68 1015.5
20260505015307 71 92 1.7 4.3 0.00 0.00 0.00 67 1015.5
20260505014804 71 91 0.9 1.7 0.00 0.00 0.00 67 1015.4
20260505014301 71 93 1.7 2.6 0.00 0.00 0.00 66 1015.5
20260505013757 71 92 1.7 1.7 0.00 0.00 0.00 66 1015.4
20260505013255 72 92 0.9 0.9 0.00 0.00 0.00 65 1015.5
20260505012753 72 92 1.7 1.7 0.00 0.00 0.00 65 1015.6
20260505012250 71 90 0.0 2.6 0.00 0.00 0.00 66 1015.5
20260505011745 71 91 1.7 2.6 0.00 0.00 0.00 65 1015.8
20260505011243 72 91 1.7 2.6 0.00 0.00 0.00 64 1015.9
20260505010738 71 90 0.0 2.6 0.00 0.00 0.00 66 1015.5
20260505010235 72 91 1.7 1.7 0.00 0.00 0.00 64 1015.6
20260505005731 72 89 0.9 2.6 0.00 0.00 0.00 64 1015.8
20260505005228 73 90 1.7 1.7 0.00 0.00 0.00 64 1015.7
20260505004725 72 91 0.0 0.9 0.00 0.00 0.00 64 1015.6
20260505004222 72 92 1.7 5.2 0.00 0.00 0.00 63 1015.6
20260505003719 74 92 0.0 1.7 0.00 0.00 0.00 62 1015.8
20260505003217 73 91 0.0 0.0 0.00 0.00 0.00 63 1015.7
20260505002713 73 91 0.9 1.7 0.00 0.00 0.00 62 1015.7
20260505002211 72 92 0.9 1.7 0.00 0.00 0.00 63 1015.6
20260505001708 73 92 1.7 1.7 0.00 0.00 0.00 61 1015.9
20260505001205 72 91 0.0 1.7 0.00 0.00 0.00 62 1015.7
20260505000702 73 91 0.9 1.7 0.00 0.00 0.00 62 1016.0
20260505000200 73 91 0.9 1.7 0.00 0.00 0.00 63 1015.8
20260504235656 71 91 0.9 0.9 0.00 0.00 0.00 65 1015.7
20260504235152 71 91 0.0 1.7 0.00 0.00 0.00 65 1015.8
20260504234650 71 90 0.0 1.7 0.00 0.00 0.00 65 1015.9
20260504234147 71 91 0.9 2.6 0.00 0.00 0.00 64 1015.8
20260504233643 71 91 0.9 0.9 0.00 0.00 0.00 63 1015.9
20260504233139 71 90 0.0 4.3 0.00 0.00 0.00 64 1016.1
20260504232637 70 91 2.6 4.3 0.00 0.00 0.00 64 1016.2
20260504232133 70 91 1.7 1.7 0.00 0.00 0.00 65 1016.0
20260504231630 71 91 1.7 2.6 0.00 0.00 0.00 63 1016.1
20260504231126 70 90 1.7 2.6 0.00 0.00 0.00 64 1016.2